GAOFEN-1 03

Last updated on Thu Jul 03 2025 00:02:30 GMT+0000 (Coordinated Universal Time)

1 43260U 18031B 25183.58504527 .00000621 00000+0 95892-4 0 9998 2 43260 97.7709 243.9315 0007097 82.4037 277.7979 14.76604464391104
UTC large
Height (km)
Speed (km/s)
/
Latitude / Longitude
Inclination (degrees)
Orbital Period (minutes)
Azimuth
Elevation
Range (km)
Doppler Factor

Next 0 passes for location: London (51.5072 / 0.1276)

Sorry there are no passes over London.